COSMOS 1275 DEB, 12775

Orbit data source: Space-Track

COSMOS 1275 DEB, 12775 is space debris in LEO originally from a launch on Thu, 04 Jun 1981 UTC launched from the Plesetsk Missile And Space Complex (PKMTR). Debris objects in space refer to the collection of defunct objects orbiting the Earth. Examples of debris include non-operational satellites, rocket bodies, and fragments generated from explosions, collisions, or faulty payload assembly.

Loading next visibility...
Identifier
12775, 1981-053DU
Orbit
LEO
Country
Flag of CISCIS
Related business
Manufacturer
Unknown
Mission
Spacecraft
Bus & Motor
Unknown
Mass
Unknown
Launch date (UTC)
1981-06-04 (45 years ago)
Launch vehicle
Unknown
Launch site
Plesetsk Missile And Space Complex (PKMTR)
Object type
Payload
Rocket body
Debris
Shape & HBR
Unknown shape, 0.1 m
Radar Cross Section
Small (<0.1 m²)

Expand to show TLE details & history
Last TLE update: 18 hours ago

TLE from 18 hours ago
0 COSMOS 1275 DEB
1 12775U 81053DU  26071.72555374  .00000785  00000-0  91595-3 0  9995
2 12775  83.3341 326.9934 0150516 299.5676 114.9143 13.62838657198969
Epoch: 2026-03-12T17:24Z
TLE epoch observation values (Epoch: 2026-03-12T17:24:47.843Z)
Latitude
55.55825°
Longitude
-94.81596°
Altitude
1,082.944 km
Speed
7.292 km/s
True Right ascension
22h 27m 01s
True Declination
55° 24' 17"
Sunlit
Object was in daylight at epoch
Visualization orbit readout
Latitude
Unknown
Longitude
Unknown
Altitude
Unknown
Speed
Unknown
Apparent Right ascension
Unknown
Apparent Declination
Unknown
Sunlit
N/A
Visualization observer readout
Local Sidereal Time
15:49:23
Azimuth
Unknown
Elevation
Unknown
Doppler factor
Unknown
Orbital elements
Apogee altitude
1,133.936 km
Perigee altitude
911.152 km
Semi-major axis
7,400.681 km
Eccentricity
0.01505
Inclination
83.3341°
RAAN
326.9934°
Arg. of periapsis
299.5676°
True anomaly
116.46608°
Mean anomaly
114.9143°
Eccentric anomaly
115.69144°
Mean motion
3.40907 °/min
Orbital period
105.6 mins
BSTAR
0.00091595
Loading maneuver chart data...
Computing Atmospheric mass density...
Loading historical data...
Loading historical data...
Loading historical data...
Loading historical data...
Loading historical data...
Loading historical data...
Loading historical data...

Documentation

Showing up to 5 results
|